Lamar, CO

3:04 PM MST on December 10, 2019 (GMT -0700)
Lamar Municipal

Weather History for KLAA - November, 2019

Change the Weather History Date:

Thursday, November 14, 2019

  Actual Average Record
Temperature  
Mean Temperature 37 °F 41 °F  
Max Temperature 57 °F 57 °F 80 °F (1958)
Min Temperature 16 °F 24 °F 2 °F (1940)
Degree Days  
Heating Degree Days 28 24  
Month to date heating degree days 366 301  
Since 1 July heating degree days 936 768  
Cooling Degree Days 0 0  
Month to date cooling degree days 0 0  
Year to date cooling degree days 1406 1121  
Moisture  
Dew Point 25 °F    
Average Humidity 64    
Maximum Humidity 92    
Minimum Humidity 35    
Precipitation  
Precipitation 0.00 in 0.01 in 0.66 in (1993)
Month to date precipitation 0.01 0.25  
Year to date precipitation 7.96 14.67  
Sea Level Pressure  
Sea Level Pressure 30.31 in    
Wind  
Wind Speed 6 mph (SSW)    
Max Wind Speed 13 mph    
Max Gust Speed 19 mph    
Visibility 10 miles    
Events      
T = Trace of Precipitation, MM = Missing Value Source: NWS Daily Summary

Daily Weather History Graph

Daily Weather History Graph

Search for Another Location

Airport or City:

Astronomy

Nov. 14, 2019 Rise Set
Actual Time 6:30 AM MST 4:39 PM MST
Civil Twilight 6:02 AM MST 5:07 PM MST
Nautical Twilight 5:30 AM MST 5:39 PM MST
Astronomical Twilight 4:59 AM MST 6:10 PM MST
Moon 6:28 PM MST (11/14) 8:26 AM MST (11/14)
Length of Visible Light 11h 05m
Length of Day
10h 09m
Waning Gibbous, 95% of the Moon is Illuminated
Nov 14
Waning Gibbous
Nov 19
Last Quarter
Nov 26
New
Dec 3
First Quarter
Dec 11
Full

Hourly Weather History & Observations

Time (MST) Temp. Windchill Dew Point Humidity Pressure Visibility Wind Dir Wind Speed Gust Speed Precip Events Conditions
12:53 AM 19.0 °F - 17.1 °F 92% 30.23 in 10.0 mi Calm Calm - N/A   Clear
1:53 AM 18.0 °F 8.7 °F 16.0 °F 92% 30.25 in 10.0 mi SW 6.9 mph - N/A   Clear
2:53 AM 18.0 °F - 15.1 °F 88% 30.28 in 10.0 mi Calm Calm - N/A   Clear
3:53 AM 23.0 °F - 21.0 °F 92% 30.29 in 10.0 mi Calm Calm - N/A   Clear
4:53 AM 21.9 °F 17.2 °F 19.9 °F 92% 30.34 in 10.0 mi WNW 3.5 mph - N/A   Clear
5:53 AM 16.0 °F 6.3 °F 14.0 °F 92% 30.38 in 10.0 mi SSW 6.9 mph - N/A   Scattered Clouds
6:53 AM 19.9 °F 8.6 °F 18.0 °F 92% 30.39 in 10.0 mi SSW 10.4 mph - N/A   Clear
8:53 AM 39.9 °F 35.1 °F 30.0 °F 68% 30.39 in 10.0 mi West 6.9 mph - N/A   Clear
10:53 AM 50.0 °F - 30.9 °F 48% 30.40 in 10.0 mi WNW 8.1 mph - N/A   Clear
11:53 AM 52.0 °F - 30.9 °F 45% 30.35 in 10.0 mi West 4.6 mph - N/A   Clear
12:53 PM 54.0 °F - 30.0 °F 40% 30.34 in 10.0 mi West 4.6 mph - N/A   Clear
1:53 PM 55.9 °F - 30.0 °F 37% 30.31 in 10.0 mi North - - N/A   Clear
2:53 PM 55.9 °F - 28.9 °F 36% 30.31 in 10.0 mi South 5.8 mph - N/A   Clear
3:53 PM 55.0 °F - 28.9 °F 37% 30.29 in 10.0 mi SE 6.9 mph - N/A   Clear
4:53 PM 44.1 °F 38.6 °F 27.0 °F 51% 30.32 in 10.0 mi SE 10.4 mph - N/A   Clear
5:53 PM 41.0 °F 34.3 °F 28.0 °F 60% 30.34 in 10.0 mi SSE 11.5 mph - N/A   Clear
6:53 PM 42.1 °F 35.2 °F 28.0 °F 58% 30.32 in 10.0 mi SSE 12.7 mph - N/A   Clear
7:53 PM 41.0 °F 33.9 °F 28.0 °F 60% 30.30 in 10.0 mi SSE 12.7 mph - N/A   Clear
8:53 PM 39.0 °F 33.4 °F 28.0 °F 65% 30.28 in 10.0 mi SSE 8.1 mph - N/A   Clear
9:53 PM 33.1 °F 28.7 °F 26.1 °F 75% 30.26 in 10.0 mi ESE 4.6 mph - N/A   Clear
11:53 PM 28.0 °F - 23.0 °F 81% 30.23 in 10.0 mi Calm Calm - N/A   Clear